Managua, Nicaragua

11:55 AM CST on February 08, 2016 (GMT -0600)
Augusto Cesar Sandino

Weather History for MNMG - March, 2014

Change the Weather History Date:

Wednesday, March 19, 2014

  Actual Average Record
Temperature  
Mean Temperature 85 °F -  
Max Temperature 95 °F 92 °F 96 °F (1998)
Min Temperature 75 °F 72 °F 37 °F (2008)
Cooling Degree Days 20    
Growing Degree Days 35 (Base 50)    
Moisture  
Dew Point 67 °F    
Average Humidity 58    
Maximum Humidity 78    
Minimum Humidity 32    
Precipitation  
Precipitation 0.00 in - - ()
Sea Level Pressure  
Sea Level Pressure 29.82 in    
Wind  
Wind Speed 8 mph ()    
Max Wind Speed 18 mph    
Max Gust Speed -    
Visibility 5.9 miles    
Events      
Averages and records for this station are not official NWS values.
T = Trace of Precipitation, MM = Missing Value Source: Averaged Metar Reports

Daily Weather History Graph

Daily Weather History Graph

Search for Another Location

Airport or City:

Trip Planner

Search our weather history database for the weather conditions in past years. The results will help you decide how hot, cold, wet, or windy it might be!

Date:

Astronomy

Mar. 19, 2014 Rise Set
Actual Time 5:49 AM CST 5:55 PM CST
Civil Twilight 5:28 AM CST 6:16 PM CST
Nautical Twilight 5:03 AM CST 6:41 PM CST
Astronomical Twilight 4:39 AM CST 7:05 PM CST
Moon 8:36 PM CST (3/19) 7:47 AM CST (3/19)
Length of Visible Light 12h 48m
Length of Day
12h 06m
Waning Gibbous, 91% of the Moon is Illuminated
Mar 19
Waning Gibbous
Mar 23
Last Quarter
Mar 30
New
Apr 7
First Quarter
Apr 15
Full

Hourly Weather History & Observations

Time (CST) Temp. Heat Index Dew Point Humidity Pressure Visibility Wind Dir Wind Speed Gust Speed Precip Events Conditions
12:00 AM 78.8 °F - 69.8 °F 74% 29.83 in 6.2 mi ESE 9.2 mph - N/A   Partly Cloudy
1:00 AM 78.8 °F - 69.8 °F 74% 29.80 in 6.2 mi ENE 6.9 mph - N/A   Partly Cloudy
2:00 AM 77.0 °F - 68.0 °F 74% 29.80 in 6.2 mi East 9.2 mph - N/A   Partly Cloudy
3:00 AM 77.0 °F - 66.2 °F 69% 29.80 in 6.2 mi ENE 6.9 mph - N/A   Partly Cloudy
4:00 AM 75.2 °F - 66.2 °F 73% 29.83 in 6.2 mi East 4.6 mph - N/A   Partly Cloudy
5:00 AM 75.2 °F - 68.0 °F 78% 29.83 in 6.2 mi East 6.9 mph - N/A   Partly Cloudy
6:00 AM 75.2 °F - 68.0 °F 78% 29.86 in 6.2 mi East 6.9 mph - N/A   Partly Cloudy
7:00 AM 77.0 °F - 68.0 °F 74% 29.86 in 6.2 mi East 9.2 mph - N/A   Partly Cloudy
8:00 AM 82.4 °F 84.6 °F 66.2 °F 58% 29.89 in 6.2 mi East 9.2 mph - N/A   Partly Cloudy
9:00 AM 84.2 °F 86.6 °F 66.2 °F 55% 29.89 in 6.2 mi ENE 11.5 mph - N/A   Partly Cloudy
10:00 AM 86.0 °F 88.2 °F 66.2 °F 51% 29.89 in 6.2 mi NE 6.9 mph - N/A   Scattered Clouds
11:00 AM 87.8 °F 90.4 °F 66.2 °F 49% 29.86 in 5.6 mi ENE 6.9 mph - N/A   Scattered Clouds
12:00 PM 91.4 °F 93.2 °F 64.4 °F 41% 29.83 in 5.6 mi NE 9.2 mph - N/A   Mostly Cloudy
1:00 PM 93.2 °F 94.1 °F 62.6 °F 36% 29.80 in 6.2 mi East 13.8 mph - N/A   Scattered Clouds
2:00 PM 95.0 °F 96.0 °F 62.6 °F 34% 29.77 in 3.7 mi ESE 16.1 mph - N/A   Smoke
3:00 PM 91.4 °F 92.1 °F 62.6 °F 38% 29.74 in 5.6 mi East 16.1 mph - N/A   Scattered Clouds
4:00 PM 93.2 °F 92.6 °F 59.0 °F 32% 29.74 in 5.6 mi East 18.4 mph - N/A   Partly Cloudy
5:00 PM 93.2 °F 94.9 °F 64.4 °F 38% 29.74 in 5.6 mi ESE 13.8 mph - N/A   Partly Cloudy
6:00 PM 87.8 °F 91.4 °F 68.0 °F 52% 29.77 in 5.6 mi ESE 11.5 mph - N/A   Partly Cloudy
7:00 PM 84.2 °F 88.4 °F 69.8 °F 62% 29.77 in 6.2 mi ESE 9.2 mph - N/A   Scattered Clouds
8:00 PM 82.4 °F 87.2 °F 71.6 °F 70% 29.80 in 6.2 mi ESE 9.2 mph - N/A   Partly Cloudy
9:00 PM 82.4 °F 87.2 °F 71.6 °F 70% 29.83 in 6.2 mi ESE 11.5 mph - N/A   Partly Cloudy
10:00 PM 82.4 °F 84.6 °F 66.2 °F 58% 29.83 in 6.2 mi East 9.2 mph - N/A   Partly Cloudy
11:00 PM 80.6 °F 83.2 °F 68.0 °F 65% 29.86 in - East 9.2 mph - N/A   Unknown